Flag for Botswana Weather past 2 weeks in Francistown, Botswana

Now
86 °F

Scattered clouds.


Feels Like: 83 °F
Forecast: 62 / 74 °F
Wind: 9 mph from Southeast

Location: Francistown Airport

Current Time: Apr 21, 2015 at 5:03:14 PM

Latest Report: Apr 21, 2015 at 4:00 PM


Visibility: N/A

Pressure: 30.12 "Hg

Humidity: 25%

Dew point: 46 °F

Location of FrancistownLocation

Historic Weather in Francistown — Graph

°F

Francistown temperature yesterday

Maximum temperature yesterday: 82 °F (at 1:00 PM)
Minimum temperature yesterday: 55 °F (at 4:00 AM)
Average temperature yesterday: 70 °F

Past Weeks' High & Low Weather Summary

 TemperatureHumidityPressure
High88 °F (Apr 16, 4:00 PM)100% (Apr 9, 4:00 AM)30.27 "Hg (Apr 9, 4:00 AM)
Low52 °F (Apr 14, 5:00 AM)25% (Apr 21, 3:00 PM)29.95 "Hg (Apr 15, 2:00 PM)
Average69 °F70%30.14 "Hg
* Reported Apr 6 4:00 PM — Apr 21 4:00 PM, Francistown, Weather by CustomWeather, © 2015

Note: Actual official high and low records may vary slightly from our data, if they occured in-between our weather recording intervals... More about our weather records

Advertising

Francistown weather history for previous 24 hours

 ConditionsComfort  
Time TempWeatherWind HumidityBarometerVisibility
4:00 PM
Tue, Apr 21
86 °FScattered clouds.9 mph25%30.12 "HgN/A
3:00 PM86 °FScattered clouds.6 mph25%30.15 "HgN/A
2:00 PM86 °FScattered clouds.10 mph27%30.15 "HgN/A
1:00 PM84 °FScattered clouds.8 mph27%30.18 "HgN/A
12:00 PM84 °FScattered clouds.10 mph27%30.18 "HgN/A
11:00 AM82 °FPassing clouds.12 mph37%30.21 "HgN/A
10:00 AM79 °FSunny.12 mph51%30.24 "Hg10 mi
9:00 AM73 °FSunny.3 mph65%30.24 "Hg10 mi
8:00 AM64 °FSunny.1 mph78%30.21 "Hg10 mi
7:00 AM54 °FSunny.3 mph94%30.18 "Hg10 mi
6:00 AM54 °FSunny.2 mph94%30.15 "Hg10 mi
4:00 AM54 °FClear.1 mph94%30.12 "Hg10 mi
3:00 AM57 °FClear.1 mph82%30.15 "Hg10 mi
2:00 AM57 °FClear.1 mph82%30.15 "Hg10 mi
1:00 AM57 °FClear.2 mph88%30.15 "Hg10 mi
10:00 PM
Mon, Apr 20
64 °FClear.6 mph73%30.15 "Hg10 mi
9:00 PM64 °FClear.2 mph68%30.15 "Hg10 mi
8:00 PM68 °FPassing clouds.5 mph64%30.12 "HgN/A
7:00 PM72 °FPassing clouds.5 mph57%30.09 "HgN/A
6:00 PM75 °FPassing clouds.8 mph50%30.09 "HgN/A
5:00 PM82 °FPassing clouds.7 mph40%30.09 "HgN/A
Weather by CustomWeather, © 2015

See weather overviewHow to use our weather pages